Regional Weather Roundup
Issued by NWS

Home | Current Version | Previous Version | Text Only | Print | Product List | Glossary Off
Versions: 1 2 3 4 5 6 7 8 9 10 11 12 13 14 15 16 17 18 19 20 21 22 23 24 25 26 27 28 29 30 31 32 33 34 35 36 37 38 39 40 41 42 43 44 45 46 47 48 49 50

000
ASUS45 KBOU 290307
RWRCO

WEATHER ROUNDUP FOR COLORADO
NATIONAL WEATHER SERVICE DENVER/BOULDER CO
900 PM MDT SAT MAR 28 2015

NOTE: "FAIR" INDICATES FEW OR NO CLOUDS BELOW 12000 FEET WITH NO
SIGNIFICANT WEATHER AND/OR OBSTRUCTIONS TO VISIBILITY.

COZ001>005-013-030-031-290400-
...NORTHWEST COLORADO...

CITY           SKY/WX    TMP DP  RH WIND       PRES   REMARKS
CRAIG          MOCLDY    49  30  48 SW5       30.12R
HAYDEN         MOCLDY    50  28  43 SW5       30.13R
MEEKER         MOCLDY    60  25  26 W5        30.11R
MOUNT WERNER   NOT AVBL
STEAMBOAT SPGS MOCLDY    52  29  42 S6        30.13R
WALDEN         MOCLDY    45  27  49 W8        30.15F
$$

COZ006>008-011-290400-
...WEST CENTRAL VALLEYS...

CITY           SKY/WX    TMP DP  RH WIND       PRES   REMARKS
GRAND JUNCTION CLEAR     55  22  27 E3        30.03R
MONTROSE       CLEAR     55  26  32 SE7       30.12R
EAGLE          MOCLDY    61  27  27 CALM      30.15R
RIFLE          MOCLDY    58  24  27 CALM      30.07R
DELTA          CLEAR     63  20  19 NW3       30.08R
NUCLA          NOT AVBL
$$

COZ017>023-064>068-290400-
...SOUTHWEST COLORADO...

CITY           SKY/WX    TMP DP  RH WIND       PRES   REMARKS
DURANGO        CLEAR     55  17  22 W6        30.19R
CORTEZ         CLEAR     47  20  34 NE7       30.17R
PAGOSA SPRINGS CLEAR     50  17  27 CALM      30.24R
TELLURIDE      NOT AVBL
WOLF CREEK PAS CLEAR     34  12  40 SW17      30.47R WCI  23
$$

COZ009-010-012-014-032>034-037-058>063-290400-
...CENTRAL COLORADO...

CITY           SKY/WX    TMP DP  RH WIND       PRES   REMARKS
ASPEN          MOCLDY    47  26  44 S6        30.18R
BUENA VISTA    PTCLDY    54  17  23 CALM      30.19R
COPPER MTN     CLOUDY    41  19  42 W22       30.38S
BERTHOUD PASS  MOCLDY    32  27  80 W31G41    30.36F WCI  17
COTTONWOOD PAS PTCLDY    52  10  19 W17G44    30.25S
GUNNISON       CLEAR     48  21  34 N8        30.23R
KREMMLING      DRIZZLE   54  28  37 W9G20     30.19R
LEADVILLE      MOCLDY    43  17  35 W9        30.27R
SALIDA         PTCLDY    58  18  20 S3        30.24R
SUNLIGHT       CLOUDY    41  25  52 CALM      30.36R
WILKERSON PASS PTCLDY    39  14  35 W9G17     30.34S
$$

COZ069>075-290400-
...SAN LUIS VALLEY/SANGRE DE CRISTO MOUNTAINS...

CITY           SKY/WX    TMP DP  RH WIND       PRES   REMARKS
ALAMOSA        CLEAR     53  20  27 SW9       30.17R
LA VETA PASS   PTCLDY    45  19  36 S9        30.29S
SAGUACHE       CLEAR     50  19  29 NW10      30.20R
$$

COZ035-036-038>040-290400-
...NORTHERN COLORADO FRONT RANGE...

CITY           SKY/WX    TMP DP  RH WIND       PRES   REMARKS
DENVER INTL AP PTCLDY    65  24  21 W12       29.97R
DMNS CITY PARK   N/A     66  23  19 W8G14     29.98R
AURORA         NOT AVBL
FRONT RANGE AP PTCLDY    63  28  27 W13       29.99R
ERIE MUNI ARPT PTCLDY    62  24  23 CALM      29.95R
BOULDER MUN AP PTCLDY    68  23  18 CALM      29.93S
CENTENNIAL     PTCLDY    61  23  23 NW7       30.00R
BROOMFIELD     PTCLDY    64  25  22 SW6       29.99R
FORT COLLINS   PTCLDY    66  27  22 NW23      29.97R
LONGMONT       PTCLDY    63  25  24 N6        29.96R
$$

COZ041-046-047-076>085-087-088-290400-
...PIKES PEAK/PALMER DIVIDE AND SOUTHERN FOOTHILLS...

CITY           SKY/WX    TMP DP  RH WIND       PRES   REMARKS
COLO. SPRINGS  CLEAR     65  17  15 W21       30.03R
A. F. ACADEMY  NOT AVBL
ELLICOTT       CLEAR    N/A N/A N/A N7        30.02R
FALCON         CLEAR     58  15  18 NW10      30.08R
FORT CARSON    NOT AVBL
LIMON          CLEAR     51  26  37 CALM      29.97R
MONUMENT HILL  CLEAR     52  19  28 SW8       30.08R
TRINIDAD       CLEAR     64  19  17 W7        30.02R
$$

COZ042>045-048>051-090-091-290400-
...NORTHEAST COLORADO...

CITY           SKY/WX    TMP DP  RH WIND       PRES   REMARKS
GREELEY ARPT   PTCLDY    66  25  20 NW13      29.90R
AKRON          PTCLDY    61  22  22 SW9       29.89R
BURLINGTON     CLEAR     59  27  29 S15       29.90S
WRAY           PTCLDY    64  26  23 SW8       29.84R
STERLING       PTCLDY    61  30  31 NW14      29.85R
HOLYOKE        NOT AVBL
FORT MORGAN    PTCLDY    59  23  25 NW13G18   29.91R
$$

COZ086-089-092>099-290400-
...SOUTHEAST COLORADO...

CITY           SKY/WX    TMP DP  RH WIND       PRES   REMARKS
PUEBLO         CLEAR     62  19  19 NW12      29.94R
LA JUNTA       CLEAR     66  25  21 S8        29.90R
LAMAR          CLEAR     64  26  23 S14       29.88R
SPRINGFIELD      N/A     55  27  34 S10       29.96S
$$


USA.gov is the U.S. government's official web portal to all federal, state and local government web resources and services.